Warroad, MN

6:43 PM CST on December 10, 2016 (GMT -0600)
Warroad International-Carlson

Weather History for KRRT - October, 2012

Change the Weather History Date:

Saturday, October 27, 2012

  Actual Average Record
Temperature  
Mean Temperature 24 °F -  
Max Temperature 30 °F 50 °F 73 °F (1989)
Min Temperature 17 °F 30 °F 11 °F (1976)
Degree Days  
Heating Degree Days 42    
Moisture  
Dew Point 18 °F    
Average Humidity 72    
Maximum Humidity 86    
Minimum Humidity 55    
Precipitation  
Precipitation 0.00 in - - ()
Sea Level Pressure  
Sea Level Pressure 30.26 in    
Wind  
Wind Speed 7 mph (WSW)    
Max Wind Speed 14 mph    
Max Gust Speed 17 mph    
Visibility 10 miles    
Events      
Averages and records for this station are not official NWS values.
T = Trace of Precipitation, MM = Missing Value Source: NWS Daily Summary

Daily Weather History Graph

Daily Weather History Graph

Search for Another Location

Airport or City:

Trip Planner

Search our weather history database for the weather conditions in past years. The results will help you decide how hot, cold, wet, or windy it might be!

Date:

Astronomy

Oct. 27, 2012 Rise Set
Actual Time 8:01 AM CDT 6:08 PM CDT
Civil Twilight 7:28 AM CDT 6:40 PM CDT
Nautical Twilight 6:51 AM CDT 7:18 PM CDT
Astronomical Twilight 6:14 AM CDT 7:54 PM CDT
Moon 4:59 PM CDT (10/27) 5:50 AM CDT (10/27)
Length of Visible Light 11h 12m
Length of Day
10h 06m
Waxing Gibbous, 96% of the Moon is Illuminated
Oct 27
Waxing Gibbous
Oct 29
Full
Nov 6
Last Quarter
Nov 13
New
Nov 20
First Quarter

Hourly Weather History & Observations

Time (CDT) Temp. Windchill Dew Point Humidity Pressure Visibility Wind Dir Wind Speed Gust Speed Precip Events Conditions
12:14 AM 28.4 °F 24.6 °F 21.2 °F 74% 30.19 in 10.0 mi WSW 3.5 mph - N/A   Overcast
12:34 AM 28.4 °F 20.4 °F 21.2 °F 74% 30.20 in 10.0 mi WSW 8.1 mph - N/A   Overcast
12:54 AM 28.4 °F 21.2 °F 21.2 °F 74% 30.20 in 10.0 mi WSW 6.9 mph - N/A   Overcast
1:14 AM 28.4 °F 19.7 °F 21.2 °F 74% 30.20 in 10.0 mi WSW 9.2 mph - N/A   Overcast
1:34 AM 28.4 °F 19.7 °F 19.4 °F 69% 30.20 in 10.0 mi West 9.2 mph - N/A   Overcast
1:54 AM 26.6 °F 16.8 °F 19.4 °F 74% 30.20 in 10.0 mi West 10.4 mph - N/A   Overcast
2:14 AM 26.6 °F 19.1 °F 19.4 °F 74% 30.20 in 10.0 mi West 6.9 mph - N/A   Overcast
2:34 AM 26.6 °F 18.2 °F 19.4 °F 74% 30.21 in 10.0 mi WSW 8.1 mph - N/A   Overcast
2:54 AM 26.6 °F 18.2 °F 17.6 °F 69% 30.21 in 10.0 mi WSW 8.1 mph - N/A   Overcast
3:34 AM 24.8 °F 15.3 °F 17.6 °F 74% 30.21 in 10.0 mi West 9.2 mph - N/A   Scattered Clouds
3:54 AM 23.0 °F 13.9 °F 15.8 °F 74% 30.21 in 10.0 mi WSW 8.1 mph - N/A   Clear
4:13 AM 23.0 °F 13.1 °F 15.8 °F 74% 30.21 in 10.0 mi WSW 9.2 mph - N/A   Clear
4:34 AM 23.0 °F 13.9 °F 15.8 °F 74% 30.21 in 10.0 mi WSW 8.1 mph - N/A   Clear
4:54 AM 21.2 °F 10.9 °F 15.8 °F 80% 30.22 in 10.0 mi WSW 9.2 mph - N/A   Clear
5:13 AM 21.2 °F 10.9 °F 15.8 °F 80% 30.22 in 10.0 mi WSW 9.2 mph - N/A   Clear
5:34 AM 21.2 °F 13.6 °F 15.8 °F 80% 30.22 in 10.0 mi WSW 5.8 mph - N/A   Clear
5:54 AM 21.2 °F 11.7 °F 15.8 °F 80% 30.23 in 10.0 mi WSW 8.1 mph - N/A   Clear
6:14 AM 21.2 °F 14.9 °F 15.8 °F 80% 30.23 in 10.0 mi West 4.6 mph - N/A   Clear
6:54 AM 21.2 °F 14.9 °F 15.8 °F 80% 30.24 in 10.0 mi WSW 4.6 mph - N/A   Mostly Cloudy
7:14 AM 23.0 °F 15.8 °F 17.6 °F 80% 30.24 in 10.0 mi WSW 5.8 mph - N/A   Overcast
7:34 AM 24.8 °F 16.9 °F 17.6 °F 74% 30.24 in 10.0 mi WSW 6.9 mph - N/A   Overcast
7:54 AM 24.8 °F 17.9 °F 17.6 °F 74% 30.25 in 10.0 mi West 5.8 mph - N/A   Overcast
8:14 AM 23.0 °F 14.7 °F 15.8 °F 74% 30.26 in 10.0 mi WSW 6.9 mph - N/A   Scattered Clouds
8:34 AM 23.0 °F 17.0 °F 15.8 °F 74% 30.26 in 10.0 mi SW 4.6 mph - N/A   Clear
8:54 AM 24.8 °F 17.9 °F 17.6 °F 74% 30.26 in 10.0 mi WSW 5.8 mph - N/A   Mostly Cloudy
9:14 AM 24.8 °F 16.9 °F 17.6 °F 74% 30.27 in 10.0 mi WSW 6.9 mph - N/A   Overcast
9:34 AM 26.6 °F 21.2 °F 17.6 °F 69% 30.27 in 10.0 mi SW 4.6 mph - N/A   Overcast
9:54 AM 26.6 °F 19.1 °F 17.6 °F 69% 30.27 in 10.0 mi SW 6.9 mph - N/A   Overcast
10:33 AM 26.6 °F 21.2 °F 17.6 °F 69% 30.27 in 10.0 mi SW 4.6 mph - N/A   Overcast
10:54 AM 28.4 °F 22.2 °F 17.6 °F 64% 30.28 in 10.0 mi SW 5.8 mph - N/A   Overcast
11:14 AM 28.4 °F 23.3 °F 17.6 °F 64% 30.27 in 10.0 mi SW 4.6 mph - N/A   Overcast
11:33 AM 30.2 °F 21.9 °F 17.6 °F 60% 30.27 in 10.0 mi SW 9.2 mph - N/A   Overcast
11:54 AM 30.2 °F 24.3 °F 19.4 °F 64% 30.27 in 10.0 mi SW 5.8 mph - N/A   Overcast
12:14 PM 30.2 °F 22.6 °F 17.6 °F 60% 30.27 in 10.0 mi WSW 8.1 mph - N/A   Overcast
12:33 PM 30.2 °F 22.6 °F 15.8 °F 55% 30.26 in 10.0 mi WSW 8.1 mph - N/A   Overcast
12:54 PM 30.2 °F 19.8 °F 17.6 °F 60% 30.26 in 10.0 mi SW 13.8 mph 17.3 mph N/A   Overcast
1:14 PM 30.2 °F 20.2 °F 15.8 °F 55% 30.26 in 10.0 mi WSW 12.7 mph - N/A   Overcast
1:33 PM 30.2 °F 21.3 °F 19.4 °F 64% 30.26 in 10.0 mi West 10.4 mph 17.3 mph N/A   Overcast
1:54 PM 28.4 °F 19.1 °F 17.6 °F 64% 30.26 in 10.0 mi WSW 10.4 mph 16.1 mph N/A   Overcast
2:14 PM 28.4 °F 19.1 °F 17.6 °F 64% 30.26 in 10.0 mi WSW 10.4 mph - N/A   Overcast
2:34 PM 30.2 °F 21.3 °F 17.6 °F 60% 30.26 in 10.0 mi WSW 10.4 mph - N/A   Overcast
2:54 PM 28.4 °F 19.1 °F 19.4 °F 69% 30.26 in 10.0 mi West 10.4 mph - N/A   Overcast
3:14 PM 28.4 °F 20.4 °F 19.4 °F 69% 30.26 in 10.0 mi West 8.1 mph - N/A   Mostly Cloudy
3:34 PM 28.4 °F 19.7 °F 19.4 °F 69% 30.27 in 4.0 mi West 9.2 mph - N/A   Mostly Cloudy
3:54 PM 28.4 °F 21.2 °F 19.4 °F 69% 30.27 in 10.0 mi West 6.9 mph - N/A   Overcast
4:14 PM 28.4 °F 19.1 °F 19.4 °F 69% 30.27 in 5.0 mi WSW 10.4 mph - N/A   Haze
4:34 PM 28.4 °F 21.2 °F 19.4 °F 69% 30.27 in 5.0 mi West 6.9 mph - N/A   Mostly Cloudy
4:53 PM 28.4 °F 19.7 °F 17.6 °F 64% 30.27 in 10.0 mi WSW 9.2 mph - N/A   Mostly Cloudy
5:14 PM 28.4 °F 22.2 °F 17.6 °F 64% 30.27 in 10.0 mi West 5.8 mph - N/A   Overcast
5:34 PM 28.4 °F 24.6 °F 19.4 °F 69% 30.27 in 10.0 mi West 3.5 mph - N/A   Overcast
5:54 PM 28.4 °F 23.3 °F 19.4 °F 69% 30.28 in 10.0 mi West 4.6 mph - N/A   Overcast
6:14 PM 28.4 °F 21.2 °F 19.4 °F 69% 30.28 in 10.0 mi West 6.9 mph - N/A   Overcast
6:34 PM 26.6 °F 22.6 °F 19.4 °F 74% 30.28 in 10.0 mi WSW 3.5 mph - N/A   Overcast
6:54 PM 26.6 °F 21.2 °F 19.4 °F 74% 30.29 in 10.0 mi West 4.6 mph - N/A   Overcast
7:14 PM 26.6 °F 22.6 °F 17.6 °F 69% 30.29 in 10.0 mi WSW 3.5 mph - N/A   Mostly Cloudy
7:34 PM 24.8 °F 20.5 °F 17.6 °F 74% 30.29 in 10.0 mi West 3.5 mph - N/A   Mostly Cloudy
7:54 PM 24.8 °F - 17.6 °F 74% 30.30 in 10.0 mi Calm Calm - N/A   Scattered Clouds
8:14 PM 24.8 °F - 17.6 °F 74% 30.30 in 10.0 mi Calm Calm - N/A   Clear
8:54 PM 21.2 °F - 15.8 °F 80% 30.30 in 10.0 mi Calm Calm - N/A   Clear
9:14 PM 21.2 °F - 15.8 °F 80% 30.30 in 10.0 mi Calm Calm - N/A   Clear
9:33 PM 21.2 °F - 15.8 °F 80% 30.31 in 10.0 mi Calm Calm - N/A   Clear
9:54 PM 17.6 °F - 14.0 °F 86% 30.31 in 10.0 mi Calm Calm - N/A   Clear
10:33 PM 19.4 °F - 15.8 °F 86% 30.32 in 10.0 mi Calm Calm - N/A   Overcast
10:54 PM 19.4 °F - 15.8 °F 86% 30.32 in 10.0 mi Calm Calm - N/A   Overcast
11:14 PM 19.4 °F - 15.8 °F 86% 30.32 in 10.0 mi Calm Calm - N/A   Overcast
11:33 PM 21.2 °F - 17.6 °F 86% 30.32 in 10.0 mi Calm Calm - N/A   Overcast
11:54 PM 21.2 °F - 17.6 °F 86% 30.33 in 10.0 mi Calm Calm - N/A   Overcast